sat.trackr.live / text

‹ back to catalog

STARLINK-11082 [DTC]

NORAD 59711 · 2024-088D

PAYLOAD ACTIVE UNKNOWN

§ Identity

Operator
Country
US
Launch date
2024-05-10
Launch site
AFWTR
Launch vehicle
Mass (kg)
RCS (m²)

Purposes: comms

External: N2YO · Heavens-Above · Gunter

§ Orbital elements

Epoch: 2026-09-21T21:08:02.642496Z

Period
91.74 min
Inclination
53.1591°
Eccentricity
0.0000942
Mean motion
15.69705043 rev/d
Perigee alt
359.1 km
Apogee alt
360.4 km
Semi-major
6,737.9 km
B*
3.4436e-5
RAAN
79.3154°
Arg perigee
80.2887°
Mean anomaly
279.8237°
Rev number
13,708

§ Raw data

STARLINK-11082 [DTC]1 59711U 24088D   26264.88058614  .00003584  00000+0  34436-4 0  99982 59711  53.1591  79.3154 0000942  80.2887 279.8237 15.69705043137083

JSON: /api/v1/satellites/59711 · /tle

For live sub-satellite position, see the globe view (requires WebGL).

§ Visibility from observer

Set your observer location to see the next 7 days of passes ≥ 10°. The values pass through the URL so the page stays shareable.

No JS? Fill the form by hand. The geolocation button needs JavaScript.